Miscellaneous Local Product
Issued by NWS Hastings, NE

Home | Current Version | Previous Version | Text Only | Print | Product List | Glossary On
Versions: 1 2 3 4 5 6 7 8 9 10 11 12 13 14 15 16 17 18 19 20 21 22 23 24 25 26 27 28 29 30 31 32 33 34 35 36 37 38 39 40 41 42 43 44 45 46 47 48 49 50
683
AXUS43 KGID 242202
MISGRI

GID CWA HOURLY WEATHER ROUNDUP
NATIONAL WEATHER SERVICE HASTINGS NE
400 PM CST FRI NOV 24 2017

NOTE: "FAIR" INDICATES FEW OR NO CLOUDS BELOW 12,000 FEET WITH NO
SIGNIFICANT WEATHER AND/OR OBSTRUCTIONS TO VISIBILITY.

...SOUTH CENTRAL NEBRASKA...

CITY           SKY/WX    TMP DP  RH WIND       PRES   REMARKS
GRAND ISLAND   CLEAR     64  38  38 N26G35    29.75R
KEARNEY        SUNNY     65  37  35 N24       29.77R
HASTINGS       SUNNY     66  35  31 N22G31    29.75R
ORD            CLEAR     59  33  37 N30G41    29.77R
YORK           CLEAR     66  37  34 N16G23    29.72R
AURORA         CLEAR     66  36  32 N29G38    29.74R
LEXINGTON      SUNNY     65  35  33 N22G30    29.79R
HOLDREGE       SUNNY     64  38  38 N14G22    29.77R
HEBRON         SUNNY     69  39  33 N18G25    29.71R

...NEBRASKA PANHANDLE...

CITY           SKY/WX    TMP DP  RH WIND       PRES   REMARKS
CHADRON        CLOUDY    54  29  38 NW12      29.90R
ALLIANCE       SUNNY     53  30  41 N13       29.89R
SCOTTSBLUFF    SUNNY     57  21  24 NW21      29.91R
SIDNEY         SUNNY     55  29  36 N18       29.89R

...WESTERN AND NORTH CENTRAL NEBRASKA...

CITY           SKY/WX    TMP DP  RH WIND       PRES   REMARKS
VALENTINE      SUNNY     58  28  32 NW22G28   29.84R
AINSWORTH      CLEAR     56  29  34 NW23G37   29.83R
ONEILL         CLEAR     58  34  41 NW24G33   29.79R
BROKEN BOW     SUNNY     61  35  37 NW18G32   29.80R
IMPERIAL       SUNNY     62  36  37 N22G31    29.81R
NORTH PLATTE   SUNNY     63  37  38 N21G29    29.82R
MCCOOK         CLOUDY    61  39  44 N8        29.79R

...EASTERN NEBRASKA...

CITY           SKY/WX    TMP DP  RH WIND       PRES   REMARKS
NORFOLK        CLEAR     60  34  37 NW33G41   29.70R
SO SIOUX CITY  PTCLDY    61  40  45 NW26G36   29.64R
TEKAMAH        PTCLDY    65  34  31 NW25G45   29.65R
COLUMBUS       CLEAR     65  34  31 NW28G36   29.70R
ALBION         CLEAR     62  35  35 NW30G39   29.75R
OMAHA EPPLEY   PTCLDY    67  39  35 N13       29.63R
OFFUTT AFB     CLEAR     67  38  34 N9G24     29.64R
MILLARD        CLEAR     69  41  36 NW10G16   29.65R
LINCOLN        CLEAR     69  38  32 N17G28    29.69R
NEBRASKA CITY  CLEAR     67  41  38 N17G26    29.65R
BEATRICE       CLEAR     67  41  39 N16G28    29.69R
FALLS CITY     CLOUDY    68  40  35 N18G31    29.62R

...NORTHERN KANSAS...

CITY           SKY/WX    TMP DP  RH WIND       PRES   REMARKS
GOODLAND       MOSUNNY   65  33  30 N14       29.80R
HILL CITY      PTSUNNY   68  39  34 NE17      29.76R
NORTON         PTCLDY    64  30  27 N7        29.79R
PHILLIPSBURG   SUNNY     66  37  34 N10       29.77R
SMITH CENTER   SUNNY     64  39  39 N12       29.74R
HAYS           MOSUNNY   70  38  31 N20G25    29.73R
RUSSELL        PTSUNNY   71  38  29 N20G28    29.71R
CONCORDIA      MOSUNNY   67  39  35 N22G28    29.70R
SALINA         SUNNY     77  39  25 N24G32    29.68R
TOPEKA         CLOUDY    76  40  27 W8        29.60R



USA.gov is the U.S. government's official web portal to all federal, state and local government web resources and services.